Location: Unspecified
(35.7250°N, 0.0000°E)
Time: 17:55:01
(UTC+00:00)

Explorer 7 - Visible Passes

Search period start: 12 June 2021 00:00
Search period end: 22 June 2021 00:00
Orbit: 484 x 677 km, 50.3° (Epoch: 11 June)

Date Brightness Start Highest point End Pass type
(mag) Time Alt. Az. Time Alt. Az. Time Alt. Az.
12 Jun 9.3 01:02:43 18° NW 01:04:24 22° NNW 01:08:00 10° NNE visible
12 Jun 9.9 02:44:27 10° NNW 02:46:18 12° N 02:48:07 10° NNE visible
12 Jun 8.6 23:29:37 34° NNE 23:29:37 34° NNE 23:32:22 10° NE visible
13 Jun 9.6 01:05:50 10° WNW 01:09:03 18° NNW 01:12:10 10° NNE visible
13 Jun 10.0 02:49:11 10° NNW 02:51:06 12° N 02:52:57 10° NNE visible
13 Jun 8.4 23:32:21 39° NNW 23:32:21 39° NNW 23:36:36 10° NE visible
14 Jun 9.9 01:11:03 10° NW 01:13:45 15° NNW 01:16:24 10° NNE visible
14 Jun 10.0 02:53:37 10° NNW 02:55:52 13° N 02:58:03 10° NE visible
14 Jun 8.4 21:58:07 30° ENE 21:58:07 30° ENE 22:00:36 10° NE visible
14 Jun 9.0 23:34:11 18° WNW 23:36:44 28° NNW 23:40:47 10° NNE visible
15 Jun 10.1 01:16:14 10° NW 01:18:31 13° N 01:20:45 10° NNE visible
15 Jun 9.9 02:57:52 10° NNW 03:00:37 16° NNE 03:03:16 10° NE visible
15 Jun 8.6 20:17:02 10° SSE 20:20:03 16° SE 20:23:04 10° E visible
15 Jun 7.2 21:55:18 10° SW 22:00:12 80° NW 22:05:00 10° NE visible
15 Jun 9.5 23:37:36 10° WNW 23:41:19 22° NNW 23:44:57 10° NNE visible
16 Jun 10.2 01:21:12 10° NNW 01:23:18 13° N 01:25:22 10° NNE visible
16 Jun 9.8 03:02:02 10° NNW 03:05:18 19° NNE 03:08:27 10° ENE visible
16 Jun 8.1 20:20:06 10° S 20:24:12 27° SE 20:28:17 10° ENE visible
16 Jun 7.9 21:59:49 10° WSW 22:04:36 52° NW 22:09:17 10° NE visible
16 Jun 9.9 23:42:46 10° WNW 23:46:00 17° NNW 23:49:09 10° NNE visible
17 Jun 10.2 01:25:52 10° NNW 01:28:05 13° N 01:30:16 10° NNE visible
17 Jun 9.3 03:06:11 10° NNW 03:09:57 25° NNE 03:13:31 10° E visible
17 Jun 7.5 20:23:46 10° SSW 20:28:24 44° SE 20:33:01 10° ENE visible
17 Jun 8.7 22:04:33 10° W 22:09:03 36° NNW 22:13:30 10° NE visible
17 Jun 10.1 23:47:57 10° NW 23:50:43 15° NNW 23:53:26 10° NNE visible
18 Jun 10.1 01:30:17 10° NNW 01:32:52 15° N 01:35:22 10° NE visible
18 Jun 8.7 03:10:21 10° NW 03:14:31 35° NNE 03:18:25 10° E visible
18 Jun 7.1 20:27:48 10° SW 20:32:40 73° SE 20:37:31 10° NE visible
18 Jun 9.3 22:09:28 10° W 22:13:37 27° NNW 22:17:41 10° NNE visible
18 Jun 10.3 23:53:04 10° NW 23:55:29 14° N 23:57:52 10° NNE visible
19 Jun 9.9 01:34:32 10° NNW 01:37:36 17° NNE 01:40:33 10° ENE visible
19 Jun 7.8 03:14:33 10° NW 03:19:00 54° NE 03:23:07 10° ESE visible
19 Jun 7.5 20:32:07 10° WSW 20:37:00 73° NW 20:41:52 10° NE visible
19 Jun 9.8 22:14:33 10° WNW 22:18:14 21° NNW 22:21:51 10° NNE visible
19 Jun 10.3 23:57:57 10° NNW 00:00:17 13° N 00:02:33 10° NNE visible
20 Jun 9.6 01:38:43 10° NNW 01:42:17 21° NNE 01:45:41 10° ENE visible
20 Jun 6.9 03:18:51 10° NW 03:23:23 87° NE 03:27:35 10° SE visible
20 Jun 8.3 20:36:41 10° WSW 20:41:26 48° NNW 20:46:07 10° NE visible
20 Jun 10.1 22:19:42 10° WNW 22:22:55 17° NNW 22:26:05 10° NNE visible
21 Jun 10.2 00:02:34 10° NNW 00:05:04 14° N 00:07:30 10° NE visible
21 Jun 9.1 01:42:52 10° NNW 01:46:54 28° NNE 01:50:42 10° E visible
21 Jun 7.0 03:23:16 10° WNW 03:27:41 55° SW 03:31:47 10° SSE visible
21 Jun 9.0 20:41:28 10° W 20:45:55 34° NNW 20:50:20 10° NE visible
21 Jun 10.2 22:24:52 10° NW 22:27:39 15° N 22:30:25 10° NNE visible
